Weather History for Findlay, OH

Change the Weather History Date:

Sunday, June 29, 2014

  Actual Average Record
Temperature  
Mean Temperature 78 °F -  
Max Temperature 86 °F 81 °F 101 °F (1952)
Min Temperature 71 °F 62 °F 51 °F (1956)
Cooling Degree Days 12    
Growing Degree Days 28 (Base 50)    
Moisture  
Dew Point 70 °F    
Average Humidity 76    
Maximum Humidity 93    
Minimum Humidity 57    
Precipitation  
Precipitation 0.01 in - - ()
Sea Level Pressure  
Sea Level Pressure 30.01 in    
Wind  
Wind Speed 11 mph (SSW)    
Max Wind Speed 21 mph    
Max Gust Speed 28 mph    
Visibility 9 miles    
Events Rain    
Averages and records for this station are not official NWS values.
T = Trace of Precipitation, MM = Missing Value Source: NWS Daily Summary

Daily Weather History Graph

Daily Weather History Graph

Search for Another Location

Airport:

Trip Planner

Search our weather history database for the weather conditions in past years. The results will help you decide how hot, cold, wet, or windy it might be!

Date:

Astronomy

Jun. 29, 2014 Rise Set
Actual Time 6:05 AM EDT 9:10 PM EDT
Civil Twilight 5:31 AM EDT 9:44 PM EDT
Nautical Twilight 4:48 AM EDT 10:27 PM EDT
Astronomical Twilight 3:58 AM EDT 11:17 PM EDT
Moon 8:23 AM EDT 10:29 PM EDT
Length of Visible Light 16h 12m
Length of Day
15h 05m
Waxing Crescent, 5% of the Moon is Illuminated
Jun 29
Waxing Crescent
Jul 5
First Quarter
Jul 12
Full
Jul 18
Last Quarter
Jul 26
New

Hourly Weather History & Observations

Time (EDT) Temp. Heat Index Dew Point Humidity Pressure Visibility Wind Dir Wind Speed Gust Speed Precip Events Conditions
12:53 AM 72.0 °F - 66.9 °F 84% 30.06 in 10.0 mi SSE 8.1 mph - N/A   Clear
1:53 AM 71.1 °F - 68.0 °F 90% 30.06 in 8.0 mi SSE 8.1 mph - N/A   Clear
2:53 AM 71.1 °F - 69.1 °F 93% 30.06 in 5.0 mi South 9.2 mph - N/A   Clear
3:53 AM 71.1 °F - 69.1 °F 93% 30.04 in 5.0 mi South 9.2 mph - N/A   Clear
4:53 AM 71.1 °F - 69.1 °F 93% 30.04 in 7.0 mi South 8.1 mph - N/A   Clear
5:53 AM 71.1 °F - 69.1 °F 93% 30.04 in 7.0 mi South 8.1 mph - N/A   Partly Cloudy
6:53 AM 72.0 °F - 70.0 °F 93% 30.04 in 8.0 mi South 10.4 mph - N/A   Clear
7:53 AM 73.0 °F - 70.0 °F 90% 30.04 in 10.0 mi South 10.4 mph - N/A   Clear
8:53 AM 75.9 °F - 70.0 °F 82% 30.04 in 10.0 mi South 8.1 mph - N/A   Clear
9:53 AM 80.1 °F 83.6 °F 71.1 °F 74% 30.03 in 10.0 mi South 13.8 mph - N/A   Clear
10:53 AM 82.0 °F 86.3 °F 71.1 °F 69% 30.01 in 10.0 mi SSW 16.1 mph - N/A   Scattered Clouds
11:04 AM 81.0 °F 84.9 °F 71.1 °F 72% 30.04 in 10.0 mi South 15.0 mph - N/A   Mostly Cloudy
11:16 AM 81.0 °F 84.9 °F 71.1 °F 72% 30.04 in 10.0 mi SSW 16.1 mph - N/A   Mostly Cloudy
11:53 AM 82.0 °F 86.3 °F 71.1 °F 69% 30.01 in 10.0 mi SW 13.8 mph - N/A   Mostly Cloudy
12:06 PM 82.0 °F 86.3 °F 71.1 °F 69% 30.04 in 10.0 mi SW 17.3 mph - N/A   Mostly Cloudy
12:14 PM 80.1 °F 83.2 °F 70.0 °F 71% 30.04 in 10.0 mi SW 11.5 mph - N/A   Mostly Cloudy
12:53 PM 78.1 °F - 71.1 °F 79% 30.02 in 4.0 mi SW 17.3 mph 24.2 mph 0.01 in Rain Rain
1:53 PM 82.0 °F 85.9 °F 70.0 °F 67% 30.01 in 10.0 mi SW 15.0 mph 24.2 mph 0.00 in   Mostly Cloudy
2:53 PM 84.0 °F 88.4 °F 70.0 °F 63% 30.00 in 10.0 mi SW 20.7 mph 27.6 mph N/A   Partly Cloudy
3:53 PM 84.0 °F 87.8 °F 69.1 °F 61% 29.98 in 10.0 mi WSW 15.0 mph - N/A   Scattered Clouds
4:53 PM 84.9 °F 88.8 °F 69.1 °F 59% 29.97 in 10.0 mi WSW 17.3 mph - N/A   Scattered Clouds
5:53 PM 84.9 °F 88.2 °F 68.0 °F 57% 29.96 in 10.0 mi WSW 15.0 mph 20.7 mph N/A   Partly Cloudy
6:53 PM 84.0 °F 87.0 °F 68.0 °F 58% 29.96 in 10.0 mi WSW 6.9 mph - N/A   Clear
7:53 PM 82.9 °F 86.5 °F 69.1 °F 63% 29.96 in 10.0 mi WSW 5.8 mph - N/A   Clear
8:53 PM 79.0 °F - 70.0 °F 74% 29.96 in 10.0 mi SSW 4.6 mph - N/A   Clear
9:53 PM 75.9 °F - 70.0 °F 82% 29.97 in 10.0 mi North - - N/A   Clear
10:53 PM 75.0 °F - 69.1 °F 82% 29.98 in 10.0 mi SSW 8.1 mph - N/A   Clear
11:53 PM 73.0 °F - 68.0 °F 84% 29.97 in 10.0 mi South 5.8 mph - N/A   Clear